SJX031 KSEA-RCTP

Flight info

Callsign SJX031
Flight time N/A
Altitude 34000
Route BANGR9 ARRIE J523 TOU DCT 51N130W 54N140W 55N150W DCT CDB DCT 55N170W DCT DRAPP DCT ONEIL/N0500F360 DCT NIKLL R220 NIPPI/N0492F370 R220 NUBDA/N0486F380 R220 NODAN R217 GTC Y45 KMC Y382 WAKIT Y282 POPPY Y75 IGBOD Y34 HKC A1 DRAKE DRAKE1A
Aircraft A359/H-SDE2E3GHIJ3J4J5LM1ORWXY/LB1D1

Departure

Time 2026-05-06 13:09
Airport Seattle–Tacoma International Airport (KSEA)

Arrival

Time N/A
Airport Taiwan Taoyuan International Airport (RCTP)
Time Latitude Longitude Altitude Speed Heading
2026-05-06 12:57 47.46111 -122.30270 390 ft 0 kts 180°
2026-05-06 13:03 47.46115 -122.30270 390 ft 2 kts 180°
2026-05-06 13:03 47.46133 -122.30271 390 ft 3 kts 177°
2026-05-06 13:03 47.46153 -122.30272 390 ft 3 kts 180°
2026-05-06 13:03 47.46173 -122.30271 390 ft 3 kts 188°
2026-05-06 13:04 47.46193 -122.30267 390 ft 3 kts 183°
2026-05-06 13:04 47.46212 -122.30266 390 ft 0 kts 188°
2026-05-06 13:04 47.46211 -122.30266 390 ft 0 kts 188°
2026-05-06 13:06 47.46206 -122.30268 390 ft 2 kts 191°
2026-05-06 13:06 47.46186 -122.30290 390 ft 6 kts 225°
2026-05-06 13:06 47.46160 -122.30374 390 ft 10 kts 261°
2026-05-06 13:07 47.46195 -122.30460 390 ft 12 kts 314°
2026-05-06 13:07 47.46284 -122.30552 390 ft 19 kts 327°
2026-05-06 13:07 47.46377 -122.30693 390 ft 20 kts 280°
2026-05-06 13:07 47.46374 -122.30757 390 ft 1 kts 239°
2026-05-06 13:08 47.46361 -122.30774 390 ft 3 kts 214°
2026-05-06 13:08 47.46326 -122.30776 390 ft 8 kts 180°
2026-05-06 13:08 47.46141 -122.30775 390 ft 58 kts 181°
2026-05-06 13:08 47.45516 -122.30784 390 ft 121 kts 180°
2026-05-06 13:09 47.44486 -122.30797 394 ft 175 kts 181°
2026-05-06 13:09 47.43204 -122.30790 964 ft 182 kts 178°
2026-05-06 13:09 47.41993 -122.30737 1909 ft 175 kts 180°
2026-05-06 13:09 47.40755 -122.30769 2229 ft 184 kts 182°
2026-05-06 13:10 47.39420 -122.30839 2396 ft 200 kts 183°
2026-05-06 13:10 47.37977 -122.30917 2593 ft 214 kts 182°
2026-05-06 13:10 47.36427 -122.30981 2769 ft 232 kts 182°
2026-05-06 13:10 47.34759 -122.31085 3006 ft 246 kts 186°
2026-05-06 13:11 47.33122 -122.31842 3434 ft 251 kts 212°
2026-05-06 13:11 47.31917 -122.33694 3879 ft 256 kts 241°
2026-05-06 13:11 47.31397 -122.36212 4341 ft 260 kts 259°
2026-05-06 13:11 47.31128 -122.38864 4861 ft 262 kts 262°
2026-05-06 13:12 47.30955 -122.40666 5188 ft 264 kts 262°
2026-05-06 13:12 47.30859 -122.43369 5678 ft 266 kts 276°
2026-05-06 13:12 47.31409 -122.45963 6201 ft 266 kts 297°
2026-05-06 13:12 47.32282 -122.48375 6771 ft 268 kts 299°
2026-05-06 13:13 47.33190 -122.50735 7292 ft 269 kts 302°
2026-05-06 13:13 47.34400 -122.52846 7814 ft 271 kts 317°
2026-05-06 13:13 47.35824 -122.54693 8357 ft 274 kts 319°
2026-05-06 13:13 47.37274 -122.56515 8892 ft 276 kts 319°
2026-05-06 13:14 47.38733 -122.58363 9456 ft 277 kts 319°
2026-05-06 13:14 47.40196 -122.60226 10018 ft 278 kts 318°
2026-05-06 13:14 47.41672 -122.62114 10419 ft 285 kts 318°
2026-05-06 13:14 47.43201 -122.64077 10641 ft 298 kts 318°
2026-05-06 13:15 47.44800 -122.66133 10846 ft 311 kts 318°
2026-05-06 13:15 47.46462 -122.68274 11073 ft 324 kts 318°
2026-05-06 13:15 47.48191 -122.70502 11277 ft 336 kts 318°
2026-05-06 13:15 47.49986 -122.72818 11492 ft 348 kts 317°
2026-05-06 13:16 47.51837 -122.75209 11688 ft 358 kts 317°
2026-05-06 13:16 47.53732 -122.77658 11999 ft 366 kts 317°
2026-05-06 13:16 47.55661 -122.80153 12404 ft 370 kts 317°
2026-05-06 13:16 47.57604 -122.82669 12830 ft 373 kts 317°
2026-05-06 13:17 47.59565 -122.85211 13269 ft 375 kts 317°
2026-05-06 13:17 47.61534 -122.87767 13685 ft 378 kts 317°
2026-05-06 13:17 47.63502 -122.90367 14064 ft 380 kts 314°
2026-05-06 13:17 47.65200 -122.93365 14446 ft 379 kts 302°
2026-05-06 13:18 47.66633 -122.96661 14842 ft 381 kts 300°
2026-05-06 13:18 47.68034 -123.00000 15244 ft 382 kts 300°
2026-05-06 13:18 47.69446 -123.03360 15653 ft 384 kts 300°
2026-05-06 13:18 47.70860 -123.06719 16033 ft 386 kts 300°
2026-05-06 13:19 47.72271 -123.10066 16453 ft 387 kts 300°
2026-05-06 13:19 47.73721 -123.13507 16894 ft 389 kts 300°
2026-05-06 13:19 47.75164 -123.16936 17336 ft 392 kts 300°
2026-05-06 13:19 47.76611 -123.20376 17820 ft 393 kts 300°
2026-05-06 13:20 47.78063 -123.23831 18230 ft 395 kts 300°
2026-05-06 13:20 47.79506 -123.27269 18635 ft 398 kts 300°
2026-05-06 13:20 47.80968 -123.30754 19029 ft 398 kts 300°
2026-05-06 13:20 47.82439 -123.34265 19399 ft 400 kts 300°
2026-05-06 13:21 47.83910 -123.37783 19751 ft 402 kts 300°
2026-05-06 13:21 47.85391 -123.41328 20142 ft 404 kts 300°
2026-05-06 13:21 47.86877 -123.44892 20558 ft 406 kts 300°
2026-05-06 13:21 47.88366 -123.48470 20962 ft 407 kts 299°
2026-05-06 13:22 47.89800 -123.52088 21285 ft 408 kts 297°
2026-05-06 13:22 47.91184 -123.55809 21723 ft 409 kts 296°
2026-05-06 13:22 47.92541 -123.59554 22128 ft 411 kts 296°
2026-05-06 13:22 47.93895 -123.63311 22506 ft 413 kts 296°
2026-05-06 13:23 47.95262 -123.67089 22882 ft 415 kts 296°
2026-05-06 13:23 47.96645 -123.70883 23254 ft 417 kts 296°
2026-05-06 13:23 47.98041 -123.74684 23680 ft 418 kts 296°
2026-05-06 13:23 47.99447 -123.78498 24007 ft 420 kts 296°
2026-05-06 13:24 48.00861 -123.82328 24334 ft 423 kts 296°
2026-05-06 13:24 48.02283 -123.86188 24683 ft 424 kts 296°
2026-05-06 13:24 48.03701 -123.90042 25012 ft 425 kts 296°
2026-05-06 13:24 48.05128 -123.93929 25343 ft 427 kts 296°
2026-05-06 13:25 48.06555 -123.97823 25670 ft 429 kts 296°
2026-05-06 13:25 48.07992 -124.01753 26001 ft 430 kts 296°
2026-05-06 13:25 48.09427 -124.05686 26294 ft 432 kts 296°
2026-05-06 13:25 48.10868 -124.09642 26623 ft 434 kts 296°
2026-05-06 13:26 48.12314 -124.13618 26948 ft 435 kts 296°
2026-05-06 13:26 48.13761 -124.17597 27244 ft 437 kts 296°
2026-05-06 13:26 48.15213 -124.21596 27552 ft 438 kts 296°
2026-05-06 13:26 48.16674 -124.25628 27838 ft 440 kts 296°
2026-05-06 13:27 48.18131 -124.29656 28126 ft 442 kts 296°
2026-05-06 13:27 48.19597 -124.33715 28422 ft 443 kts 296°
2026-05-06 13:27 48.21062 -124.37779 28697 ft 444 kts 296°
2026-05-06 13:27 48.22533 -124.41867 28961 ft 446 kts 295°
2026-05-06 13:28 48.24009 -124.45974 29248 ft 448 kts 296°
2026-05-06 13:28 48.25487 -124.50091 29491 ft 449 kts 296°
2026-05-06 13:28 48.26950 -124.54174 29750 ft 451 kts 296°
2026-05-06 13:28 48.28435 -124.58323 29995 ft 452 kts 296°
2026-05-06 13:29 48.30055 -124.62386 30206 ft 456 kts 302°
2026-05-06 13:29 48.31975 -124.66208 30411 ft 459 kts 305°
2026-05-06 13:29 48.33975 -124.69944 30648 ft 459 kts 306°
2026-05-06 13:29 48.36006 -124.73642 30956 ft 457 kts 306°
2026-05-06 13:30 48.38042 -124.77307 31252 ft 456 kts 307°
2026-05-06 13:30 48.40071 -124.80954 31556 ft 454 kts 307°
2026-05-06 13:30 48.42093 -124.84595 31839 ft 453 kts 306°
2026-05-06 13:30 48.44106 -124.88236 32115 ft 451 kts 306°
2026-05-06 13:31 48.46107 -124.91868 32369 ft 450 kts 306°
2026-05-06 13:31 48.48094 -124.95485 32643 ft 448 kts 306°
2026-05-06 13:31 48.50073 -124.99097 32912 ft 446 kts 306°
2026-05-06 13:31 48.52049 -125.02708 33155 ft 445 kts 306°
2026-05-06 13:32 48.54007 -125.06292 33409 ft 443 kts 306°
2026-05-06 13:32 48.55968 -125.09888 33665 ft 441 kts 306°
2026-05-06 13:32 48.57914 -125.13458 33913 ft 440 kts 306°
2026-05-06 13:32 48.59853 -125.17021 34106 ft 439 kts 306°
2026-05-06 13:33 48.61792 -125.20591 34151 ft 441 kts 306°
2026-05-06 13:33 48.65708 -125.27816 34150 ft 444 kts 306°
2026-05-06 13:34 48.69608 -125.35024 34140 ft 442 kts 306°
2026-05-06 13:34 48.73497 -125.42228 34143 ft 441 kts 306°
2026-05-06 13:35 48.77369 -125.49424 34143 ft 440 kts 306°
2026-05-06 13:35 48.81225 -125.56610 34141 ft 439 kts 306°
2026-05-06 13:36 48.85070 -125.63793 34144 ft 438 kts 306°
2026-05-06 13:36 48.88904 -125.70976 34138 ft 437 kts 306°
2026-05-06 13:37 48.92727 -125.78158 34139 ft 437 kts 306°
2026-05-06 13:37 48.96537 -125.85335 34138 ft 436 kts 306°
2026-05-06 13:38 49.00343 -125.92523 34139 ft 435 kts 305°
2026-05-06 13:38 49.04133 -125.99701 34145 ft 435 kts 305°
2026-05-06 13:39 49.07916 -126.06883 34138 ft 434 kts 305°
2026-05-06 13:39 49.11660 -126.14014 34143 ft 433 kts 305°
2026-05-06 13:40 49.15419 -126.21190 34143 ft 432 kts 305°
2026-05-06 13:40 49.19171 -126.28373 34136 ft 431 kts 305°
2026-05-06 13:41 49.22906 -126.35541 34137 ft 431 kts 305°
2026-05-06 13:41 49.26628 -126.42706 34132 ft 430 kts 304°